Location: *
(32.8140°S, 174.6161°E)
Time: 05:43:34
(UTC+00:00)

CZ-2D R/B - Pass Details

Date: 10 December 2019
Orbit: 791 x 845 km, 98.6° (Epoch: 28 January)

Event Time Altitude Azimuth Distance (km) Brightness Sun altitude
Exits shadow 14:47:09 10° 248° (WSW) 2,408 4.4 -23.4°
Drops below altitude 10° 14:47:17 10° 247° (WSW) 2,428 4.4 -23.4°
Sets 14:51:06 0° 219° (SW) 3,347 5.5 -22.9°
